Location: Sungai Apap
(2.6167°N, 113.3833°E)
Time: 13:40:35
(UTC+00:00)

NOSS 3-1 (C) - Pass Details

Date: 25 May 2024
Orbit: 652 x 1553 km, 63.4° (Epoch: 15 May)

Event Time Altitude Azimuth Distance (km) Brightness Sun altitude
Rises 12:40:05 0° 341° (NNW) 4,428 7.5 -30.4°
Reaches altitude 10° 12:42:53 10° 343° (NNW) 3,541 6.9 -31.1°
Maximum altitude 12:51:55 76° 68° (ENE) 1,583 4.3 -33.1°
Enters shadow 12:52:32 73° 100° (E) 1,601 4.3 -33.2°
